| time (UTC) | temp C | wind direction | speed KPH | gust KPH | rain 1hr cm | rain 24hr cm | rain mn cm | humidity % | barometer mb |
| 20260508065004 | 7 | 207 | 1.6 | 4.8 | 0.05 | 0.13 | 0.05 | 97 | 1008.7 |
| 20260508063005 | 7 | 186 | 0.0 | 1.6 | 0.03 | 0.10 | 0.03 | 97 | 1008.5 |
| 20260508061004 | 8 | 20 | 1.6 | 4.8 | 0.00 | 0.08 | 0.00 | 97 | 1008.2 |
| 20260508055005 | 8 | 167 | 3.2 | 8.0 | 0.00 | 0.08 | 0.00 | 96 | 1008.4 |
| 20260508053005 | 7 | 59 | 0.0 | 0.0 | 0.00 | 0.08 | 0.00 | 96 | 1008.1 |
| 20260508052005 | 7 | 59 | 0.0 | 0.0 | 0.00 | 0.08 | 0.00 | 96 | 1008.1 |
| 20260508051004 | 7 | 59 | 0.0 | 0.0 | 0.00 | 0.08 | 0.00 | 96 | 1008.0 |
| 20260508050005 | 7 | 59 | 0.0 | 0.0 | 0.00 | 0.08 | 0.00 | 96 | 1008.0 |
| 20260508045005 | 7 | 59 | 0.0 | 0.0 | 0.00 | 0.08 | 0.00 | 95 | 1008.2 |
| 20260508043004 | 8 | 59 | 0.0 | 0.0 | 0.00 | 0.08 | 0.00 | 95 | 1008.1 |
| 20260508042004 | 8 | 59 | 0.0 | 1.6 | 0.00 | 0.08 | 0.00 | 95 | 1008.1 |
| 20260508040004 | 8 | 59 | 1.6 | 4.8 | 0.00 | 0.08 | 0.00 | 95 | 1008.2 |
| 20260508035005 | 8 | 59 | 0.0 | 1.6 | 0.00 | 0.08 | 0.00 | 95 | 1008.3 |
| 20260508034006 | 8 | 59 | 0.0 | 1.6 | 0.00 | 0.08 | 0.00 | 95 | 1008.4 |
| 20260508033005 | 8 | 59 | 0.0 | 3.2 | 0.00 | 0.08 | 0.00 | 95 | 1008.5 |
| 20260508032004 | 8 | 59 | 0.0 | 3.2 | 0.00 | 0.08 | 0.00 | 95 | 1008.6 |
| 20260508031004 | 8 | 59 | 1.6 | 3.2 | 0.00 | 0.08 | 0.00 | 95 | 1008.5 |
| 20260508030004 | 9 | 59 | 0.0 | 0.0 | 0.00 | 0.08 | 0.00 | 95 | 1008.7 |
| 20260508025005 | 9 | 59 | 0.0 | 0.0 | 0.00 | 0.08 | 0.00 | 95 | 1008.7 |
| 20260508024004 | 9 | 59 | 1.6 | 4.8 | 0.00 | 0.08 | 0.00 | 95 | 1008.8 |
| 20260508023005 | 9 | 59 | 0.0 | 4.8 | 0.00 | 0.08 | 0.00 | 95 | 1009.0 |
| 20260508022004 | 9 | 98 | 3.2 | 4.8 | 0.00 | 0.08 | 0.00 | 96 | 1009.0 |
| 20260508021005 | 9 | 97 | 0.0 | 0.0 | 0.00 | 0.08 | 0.00 | 96 | 1009.2 |
| 20260508020005 | 9 | 97 | 0.0 | 1.6 | 0.00 | 0.08 | 0.00 | 96 | 1009.3 |
| 20260508015005 | 9 | 97 | 0.0 | 3.2 | 0.00 | 0.08 | 0.00 | 96 | 1009.4 |
| 20260508014004 | 9 | 97 | 1.6 | 11.3 | 0.00 | 0.08 | 0.00 | 96 | 1009.5 |
| 20260508011005 | 8 | 215 | 1.6 | 3.2 | 0.00 | 0.08 | 0.00 | 96 | 1010.4 |
| 20260508010004 | 8 | 221 | 3.2 | 16.1 | 0.00 | 0.08 | 0.00 | 96 | 1010.5 |
| 20260508004004 | 8 | 228 | 11.3 | 16.1 | 0.00 | 0.08 | 0.00 | 95 | 1010.6 |
| 20260508002005 | 9 | 171 | 0.0 | 0.0 | 0.00 | 0.08 | 0.00 | 95 | 1010.2 |
| 20260508001005 | 9 | 171 | 0.0 | 3.2 | 0.00 | 0.08 | 0.00 | 94 | 1010.3 |
| 20260508000005 | 9 | 171 | 0.0 | 1.6 | 0.00 | 0.08 | 0.00 | 94 | 1010.2 |
| 20260507235005 | 9 | 171 | 0.0 | 3.2 | 0.00 | 0.08 | 0.00 | 94 | 1010.3 |
| 20260507231004 | 10 | 184 | 0.0 | 3.2 | 0.00 | 0.08 | 0.00 | 93 | 1010.4 |
| 20260507230005 | 10 | 212 | 0.0 | 1.6 | 0.00 | 0.08 | 0.00 | 93 | 1010.5 |
| 20260507225004 | 10 | 212 | 0.0 | 4.8 | 0.00 | 0.08 | 0.00 | 92 | 1010.8 |
| 20260507224005 | 10 | 207 | 1.6 | 4.8 | 0.00 | 0.08 | 0.00 | 91 | 1010.8 |
| 20260507223005 | 10 | 51 | 1.6 | 4.8 | 0.00 | 0.08 | 0.00 | 90 | 1010.7 |
| 20260507222005 | 10 | 65 | 1.6 | 4.8 | 0.00 | 0.08 | 0.00 | 90 | 1010.8 |
| 20260507220005 | 10 | 198 | 0.0 | 1.6 | 0.03 | 0.08 | 0.00 | 91 | 1011.0 |
| 20260507215004 | 10 | 198 | 0.0 | 0.0 | 0.03 | 0.08 | 0.08 | 91 | 1010.9 |
| 20260507214005 | 10 | 198 | 0.0 | 3.2 | 0.03 | 0.08 | 0.08 | 91 | 1010.8 |
| 20260507213005 | 10 | 198 | 3.2 | 8.0 | 0.03 | 0.08 | 0.08 | 89 | 1011.0 |
| 20260507212004 | 11 | 58 | 6.4 | 11.3 | 0.03 | 0.08 | 0.08 | 88 | 1010.5 |
| 20260507211004 | 11 | 302 | 0.0 | 4.8 | 0.00 | 0.05 | 0.05 | 88 | 1010.8 |
| 20260507210005 | 11 | 238 | 0.0 | 0.0 | 0.00 | 0.05 | 0.05 | 87 | 1010.9 |
| 20260507205004 | 11 | 238 | 0.0 | 4.8 | 0.00 | 0.05 | 0.05 | 87 | 1010.8 |
| 20260507204005 | 11 | 219 | 3.2 | 4.8 | 0.00 | 0.05 | 0.05 | 85 | 1010.6 |
| 20260507203004 | 12 | 220 | 0.0 | 9.7 | 0.00 | 0.05 | 0.05 | 83 | 1010.4 |
| 20260507202005 | 12 | 245 | 3.2 | 4.8 | 0.00 | 0.05 | 0.05 | 78 | 1010.1 |
| 20260507201004 | 13 | 294 | 1.6 | 8.0 | 0.00 | 0.05 | 0.05 | 74 | 1010.0 |
| 20260507200004 | 12 | 55 | 1.6 | 4.8 | 0.00 | 0.05 | 0.05 | 73 | 1009.7 |
| 20260507195005 | 12 | 55 | 3.2 | 9.7 | 0.00 | 0.05 | 0.05 | 74 | 1009.4 |
| 20260507194004 | 13 | 62 | 4.8 | 19.3 | 0.00 | 0.05 | 0.05 | 73 | 1009.4 |
| 20260507193006 | 13 | 61 | 3.2 | 8.0 | 0.00 | 0.05 | 0.05 | 73 | 1009.3 |
| 20260507192005 | 13 | 7 | 3.2 | 16.1 | 0.00 | 0.05 | 0.05 | 73 | 1009.1 |
| 20260507191005 | 13 | 39 | 9.7 | 16.1 | 0.00 | 0.05 | 0.05 | 72 | 1009.0 |
| 20260507190006 | 13 | 24 | 4.8 | 11.3 | 0.00 | 0.05 | 0.05 | 72 | 1008.9 |
| 20260507185004 | 13 | 28 | 3.2 | 22.5 | 0.00 | 0.05 | 0.05 | 72 | 1008.9 |
| 20260507184004 | 13 | 347 | 8.0 | 24.1 | 0.00 | 0.05 | 0.05 | 72 | 1008.7 |
| 20260507182005 | 13 | 322 | 16.1 | 35.4 | 0.00 | 0.05 | 0.05 | 72 | 1008.4 |
| 20260507181005 | 14 | 328 | 4.8 | 29.0 | 0.00 | 0.05 | 0.05 | 71 | 1008.3 |
| 20260507174004 | 15 | 309 | 6.4 | 22.5 | 0.00 | 0.05 | 0.05 | 68 | 1007.9 |
| 20260507173005 | 15 | 301 | 14.5 | 20.9 | 0.00 | 0.05 | 0.05 | 66 | 1007.8 |
| 20260507172005 | 16 | 269 | 1.6 | 4.8 | 0.00 | 0.05 | 0.05 | 64 | 1007.7 |
| 20260507171005 | 16 | 22 | 1.6 | 8.0 | 0.00 | 0.05 | 0.05 | 59 | 1007.7 |
| 20260507170005 | 16 | 344 | 3.2 | 9.7 | 0.00 | 0.05 | 0.05 | 60 | 1007.6 |
| 20260507164004 | 16 | 94 | 1.6 | 12.9 | 0.00 | 0.05 | 0.05 | 60 | 1007.7 |
| 20260507163004 | 16 | 73 | 3.2 | 9.7 | 0.00 | 0.05 | 0.05 | 62 | 1007.6 |
| 20260507162005 | 16 | 60 | 4.8 | 9.7 | 0.00 | 0.05 | 0.05 | 61 | 1007.8 |
| 20260507161004 | 16 | 99 | 6.4 | 14.5 | 0.00 | 0.05 | 0.05 | 62 | 1007.7 |
| 20260507160004 | 16 | 73 | 9.7 | 19.3 | 0.00 | 0.05 | 0.05 | 64 | 1007.8 |
| 20260507155005 | 16 | 80 | 4.8 | 11.3 | 0.00 | 0.05 | 0.05 | 64 | 1007.9 |
| 20260507154005 | 15 | 152 | 3.2 | 8.0 | 0.00 | 0.05 | 0.05 | 66 | 1008.0 |
| 20260507153004 | 15 | 147 | 9.7 | 29.0 | 0.00 | 0.05 | 0.05 | 69 | 1008.2 |
| 20260507152004 | 14 | 129 | 16.1 | 35.4 | 0.00 | 0.05 | 0.05 | 71 | 1008.4 |
| 20260507151004 | 15 | 143 | 14.5 | 32.2 | 0.00 | 0.05 | 0.05 | 70 | 1008.8 |
| 20260507145004 | 15 | 173 | 17.7 | 27.4 | 0.00 | 0.05 | 0.05 | 68 | 1008.8 |
| 20260507144005 | 16 | 182 | 16.1 | 32.2 | 0.05 | 0.05 | 0.05 | 70 | 1008.7 |
| 20260507142004 | 14 | 96 | 11.3 | 24.1 | 0.05 | 0.05 | 0.05 | 73 | 1008.2 |
| 20260507140005 | 13 | 122 | 16.1 | 29.0 | 0.05 | 0.05 | 0.05 | 79 | 1008.3 |
| 20260507135005 | 12 | 111 | 17.7 | 41.8 | 0.05 | 0.05 | 0.05 | 80 | 1008.4 |
| 20260507134004 | 13 | 133 | 20.9 | 38.6 | 0.00 | 0.00 | 0.00 | 74 | 1008.5 |
| 20260507133005 | 15 | 152 | 19.3 | 32.2 | 0.00 | 0.00 | 0.00 | 69 | 1008.3 |
| 20260507132004 | 16 | 133 | 8.0 | 14.5 | 0.00 | 0.00 | 0.00 | 63 | 1008.3 |
| 20260507131004 | 16 | 128 | 4.8 | 16.1 | 0.00 | 0.00 | 0.00 | 64 | 1008.3 |
| 20260507130005 | 16 | 150 | 17.7 | 25.7 | 0.00 | 0.00 | 0.00 | 66 | 1008.4 |
| 20260507125004 | 17 | 175 | 9.7 | 19.3 | 0.00 | 0.00 | 0.00 | 57 | 1008.4 |
| 20260507124004 | 17 | 220 | 8.0 | 12.9 | 0.00 | 0.00 | 0.00 | 58 | 1008.5 |
| 20260507123006 | 17 | 163 | 4.8 | 22.5 | 0.00 | 0.00 | 0.00 | 58 | 1008.6 |
| 20260507122005 | 17 | 158 | 9.7 | 22.5 | 0.00 | 0.00 | 0.00 | 59 | 1008.7 |
| 20260507121005 | 17 | 197 | 11.3 | 22.5 | 0.00 | 0.00 | 0.00 | 59 | 1008.9 |
| 20260507120005 | 17 | 263 | 8.0 | 14.5 | 0.00 | 0.00 | 0.00 | 57 | 1009.1 |
| 20260507115005 | 17 | 294 | 1.6 | 14.5 | 0.00 | 0.00 | 0.00 | 59 | 1009.1 |
| 20260507114004 | 16 | 262 | 8.0 | 19.3 | 0.00 | 0.00 | 0.00 | 58 | 1009.3 |
| 20260507113005 | 16 | 290 | 9.7 | 16.1 | 0.00 | 0.00 | 0.00 | 58 | 1009.3 |
| 20260507112004 | 16 | 247 | 8.0 | 19.3 | 0.00 | 0.00 | 0.00 | 60 | 1009.5 |
| 20260507111004 | 16 | 290 | 8.0 | 12.9 | 0.00 | 0.00 | 0.00 | 58 | 1009.4 |
| 20260507105005 | 17 | 185 | 6.4 | 16.1 | 0.00 | 0.00 | 0.00 | 61 | 1009.6 |
| 20260507104004 | 16 | 259 | 3.2 | 19.3 | 0.00 | 0.00 | 0.00 | 60 | 1009.7 |
| 20260507103004 | 16 | 148 | 1.6 | 16.1 | 0.00 | 0.00 | 0.00 | 62 | 1009.9 |
| 20260507102006 | 16 | 273 | 1.6 | 4.8 | 0.00 | 0.00 | 0.00 | 64 | 1010.0 |
| 20260507100005 | 15 | 162 | 3.2 | 16.1 | 0.00 | 0.00 | 0.00 | 68 | 1010.2 |
| 20260507094005 | 14 | 351 | 1.6 | 8.0 | 0.00 | 0.00 | 0.00 | 71 | 1010.3 |
| 20260507093005 | 13 | 10 | 3.2 | 4.8 | 0.00 | 0.00 | 0.00 | 72 | 1010.6 |
| 20260507092004 | 13 | 303 | 3.2 | 9.7 | 0.00 | 0.00 | 0.00 | 74 | 1010.7 |
| 20260507090006 | 12 | 237 | 3.2 | 11.3 | 0.00 | 0.00 | 0.00 | 76 | 1010.7 |
| 20260507085005 | 13 | 264 | 4.8 | 11.3 | 0.00 | 0.00 | 0.00 | 75 | 1010.8 |
| 20260507084005 | 12 | 208 | 3.2 | 9.7 | 0.00 | 0.00 | 0.00 | 76 | 1010.9 |
| 20260507083005 | 12 | 261 | 1.6 | 4.8 | 0.00 | 0.00 | 0.00 | 76 | 1010.9 |
| 20260507082004 | 12 | 303 | 1.6 | 4.8 | 0.00 | 0.00 | 0.00 | 75 | 1010.9 |
| 20260507080005 | 12 | 197 | 1.6 | 3.2 | 0.00 | 0.00 | 0.00 | 79 | 1011.0 |
| 20260507075005 | 11 | 196 | 0.0 | 4.8 | 0.00 | 0.00 | 0.00 | 86 | 1011.1 |
| 20260507074004 | 10 | 196 | 3.2 | 4.8 | 0.00 | 0.00 | 0.00 | 88 | 1011.3 |
| 20260507073004 | 10 | 108 | 1.6 | 3.2 | 0.00 | 0.00 | 0.00 | 90 | 1011.3 |
| 20260507072005 | 9 | 107 | 0.0 | 1.6 | 0.00 | 0.00 | 0.00 | 90 | 1011.4 |